Showing default

ASTRO H, 41337

Orbit data source: Space-Track

ASTRO H, 41337 is a Japanese payload satellite in LEO that was launched on Wed, 17 Feb 2016 UTC via an H-IIA 202 launch vehicle from the Tanegashima Space Center (TNSTA). Payload-class satellites include a variety of spacecraft equipped with specific instruments for various scientific and technological missions. These include communications satellites like Starlink; space stations such as the ISS; scientific satellites like the Hubble; Earth observation satellites from companies like Planet Labs, Umbra, and HawkEye 360; GPS; miniature CubeSats for education and research; and military/defense satellites.

Loading next visibility...
Identifier
41337, 2016-012A
Orbit
LEO
Country
Flag of JPJP / JPN
Related business
Manufacturer
TSUK/NECTF
Mission
Non-operational Civil Astronomy
Bus & Motor
ASTRO-H, Unknown motor
Mass
2,700 kg wet, 2,700 kg dry
Launch date (UTC)
2016-02-17 (10 years ago)
Launch vehicle
H-IIA 202
Launch site
Tanegashima Space Center (TNSTA)
Object type
Payload
Rocket body
Debris
Shape & HBR
Oct Cyl + 2 Pan + 1 Truss, 7.0 m
Radar Cross Section
16.262 m², Large (>1 m²)

Expand to show TLE details & history
Last TLE update: 13 hours ago

TLE from 13 hours ago
0 ASTRO H
1 41337U 16012A   25307.73425715  .00003605  00000-0  21661-3 0  9992
2 41337  30.9989  88.7566 0009874 145.7208 214.4069 15.08991939533183
Epoch: 2025-11-03T17:37Z
TLE epoch observation values (Epoch: 2025-11-03T17:37:19.817Z)
Latitude
0.00001°
Longitude
141.19267°
Altitude
543.425 km
Speed
7.59 km/s
True Right ascension
05h 55m 01s
True Declination
0° 00' 00"
Sunlit
Object was in full shadow at epoch
Visualization orbit readout
Latitude
Unknown
Longitude
Unknown
Altitude
Unknown
Speed
Unknown
Apparent Right ascension
Unknown
Apparent Declination
Unknown
Sunlit
N/A
Visualization observer readout
Local Sidereal Time
02:40:41
Azimuth
Unknown
Elevation
Unknown
Doppler factor
Unknown
Orbital elements
Apogee altitude
549.953 km
Perigee altitude
536.284 km
Semi-major axis
6,921.255 km
Eccentricity
0.00099
Inclination
30.9989°
RAAN
88.7566°
Arg. of periapsis
145.7208°
True anomaly
214.34303°
Mean anomaly
214.4069°
Eccentric anomaly
214.37496°
Mean motion
3.76934 °/min
Orbital period
95.51 mins
BSTAR
0.00021661
Loading maneuver chart data...
Computing Atmospheric mass density...
Loading historical data...
Loading historical data...
Loading historical data...
Loading historical data...
Loading historical data...
Loading historical data...
Loading historical data...

Documentation

Showing up to 5 results
|